{"data":{"norad_id":65904,"epoch":"2026-09-20T03:48:31.061376Z","epoch_age_seconds":135718,"freshness":"FRESH","line1":"1 65904U 25224Y   26263.15869284  .00021345  00000+0  64077-3 0  9992","line2":"2 65904  53.1591 183.4243 0001840 212.5047 147.5843 15.34415064 54665","mean_motion":15.34415064,"eccentricity":0.000184,"inclination_deg":53.1591,"raan_deg":183.4243,"arg_perigee_deg":212.5047,"mean_anomaly_deg":147.5843,"bstar":0.00064077,"rev_number":5466,"period_min":93.846836738303,"perigee_km":461.39976082485,"apogee_km":463.91717355677,"semimajor_km":6840.7954671908,"source":"CELESTRAK","updated_at":"2026-09-21T09:00:35.760847Z"}}